User: anonymous   Login
Location: Crayja
(6.2254°N, 10.6273°W)
Time: 07:31:21
(UTC+00:00)
Language:

STARLINK-76 - Orbit

View from above orbital plane
View from above orbital plane
View from above satellite
View from above satellite

Ground track
Ground track

The orbit data is extracted from the following two-line orbital elements,

1 44287U 19029BE  20157.25001157  .06362160  00000-0  17833+0 0  9997
2 44287  52.9949 265.1063 0002908  40.2206 300.7947 15.31560085 58312
Epoch (UTC): 05 June 2020 06:00:01
Eccentricity: 0.0002908
inclination: 52.9949°
perigee height: 469 km
apogee height: 473 km
right ascension of ascending node: 265.1063°
argument of perigee: 40.2206°
revolutions per day: 15.31560085
mean anomaly at epoch: 300.7947°
orbit number at epoch: 5831

The dashed part of the orbit path shows where the satellite is in the earth's shadow,  

DLR